RESURS O1-N4            
1 25394U 98043A   19264.46849864 -.00000064  00000-0 -89136-5 0  9992
2 25394  98.6417 201.1582 0002395  68.5910 291.5524 14.24434279101973
FASAT B                 
1 25395U 98043B   19264.90502539  .00000015  00000-0  24813-4 0  9991
2 25395  98.6551 204.8263 0003729  52.9763 307.1757 14.25234185102253
TMSAT-1 (TO-31)         
1 25396U 98043C   19264.47010363  .00000013  00000-0  24385-4 0  9995
2 25396  98.6712 204.0453 0003793  83.9302 276.2309 14.24524279101815
TECHSAT 1B (GO-32)      
1 25397U 98043D   19264.42834615 -.00000010  00000-0  14819-4 0  9994
2 25397  98.6939 203.4476 0002286 105.5198 254.6233 14.23670719101350
WESTPAC                 
1 25398U 98043E   19264.83906692 -.00000023  00000-0  94149-5 0  9994
2 25398  98.6976 201.7421 0002432  96.5312 263.6143 14.22835571101047
SAFIR 2                 
1 25399U 98043F   19264.96903024  .00000009  00000-0  22667-4 0  9993
2 25399  98.6617 203.9628 0002637  53.1213 307.0207 14.24646761101989
SL-16 R/B               
1 25400U 98043G   19264.89125420 -.00000015  00000-0  11779-4 0  9994
2 25400  98.5768 201.1904 0010760  45.6225 314.5834 14.25443707102841
SL-16 DEB               
1 25401U 98043H   19264.12822340 -.00000078  00000-0 -25313-4 0  9995
2 25401  98.5692 183.9466 0163379 332.4298 134.0680 13.93734080 77868
SL-16 DEB               
1 25402U 98043J   19264.96722361  .00000324  00000-0  24538-3 0  9999
2 25402  99.3764 245.8191 0154234 200.8560 226.8112 13.95858492 79566
SL-16 DEB               
1 25403U 98043K   19264.37860667  .00000005  00000-0  35209-4 0  9991
2 25403  98.5712  38.1752 0213487 165.8478 256.5100 13.77738619 65651
SL-16 DEB               
1 27491U 98043L   19265.01831618  .00000013  00000-0  44683-4 0  9991
2 27491  98.9585  53.5232 0206938  16.2486 344.5173 13.79364001 67008